QPF
0.02 0.02 0.01 0.01 0.00 0.00 0.00 0.00 0.00 0.00 0.00 0.00 0.00 0.00 0.00 0.00 0.00 0.00 0.00 0.00 0.00 0.00 0.00 0.00 0.00 0.00 0.01 0.01 0.02 0.02 0.02 0.01 0.01 0.01 0.00 0.00 0.00 0.00 0.00 0.00 0.00 0.00 0.01
0.07 0.08 0.04 0.02 0.00 0.00 0.00 0.00 0.00 0.00 0.00 0.00 0.00 0.00 0.00 0.00 0.00 0.00 0.00 0.00 0.00 0.00 0.00 0.00 0.00 0.00 0.00 0.01 0.01 0.02 0.03 0.02 0.02 0.02 0.01 0.01 0.00 0.00 0.00 0.00 0.00 0.00 0.00
0.02 0.03 0.02 0.01 0.00 0.00 0.00 0.00 0.00 0.00 0.00 0.00 0.00 0.00 0.00 0.00 0.01 0.01 0.00 0.00 0.00 0.00 0.00 0.00 0.00 0.00 0.00 0.00 0.00 0.02 0.03 0.03 0.03 0.03 0.03 0.02 0.01 0.01 0.00 0.00 0.00 0.00 0.00
0.00 0.00 0.00 0.00 0.00 0.00 0.00 0.00 0.00 0.00 0.00 0.01 0.02 0.02 0.02 0.02 0.02 0.02 0.02 0.02 0.02 0.02 0.02 0.02 0.01 0.01 0.01 0.00 0.00 0.01 0.01 0.03 0.04 0.05 0.04 0.04 0.03 0.02 0.01 0.01 0.01 0.01 0.00
0.00 0.00 0.00 0.00 0.00 0.00 0.00 0.00 0.00 0.00 0.00 0.01 0.01 0.01 0.01 0.01 0.01 0.01 0.01 0.01 0.01 0.01 0.02 0.02 0.02 0.01 0.01 0.00 0.00 0.00 0.00 0.01 0.03 0.05 0.04 0.04 0.05 0.05 0.04 0.03 0.02 0.03 0.02
0.00 0.00 0.00 0.00 0.00 0.00 0.00 0.00 0.00 0.00 0.00 0.00 0.00 0.00 0.00 0.01 0.01 0.01 0.02 0.01 0.01 0.01 0.00 0.00 0.00 0.00 0.00 0.00 0.00 0.00 0.00 0.01 0.02 0.03 0.03 0.05 0.07 0.07 0.06 0.05 0.05 0.06 0.06
0.00 0.00 0.00 0.00 0.00 0.00 0.00 0.00 0.00 0.00 0.00 0.00 0.00 0.00 0.00 0.00 0.00 0.00 0.00 0.00 0.00 0.00 0.00 0.00 0.00 0.00 0.00 0.00 0.00 0.00 0.00 0.01 0.01 0.02 0.03 0.07 0.08 0.06 0.05 0.05 0.06 0.08 0.09
0.00 0.00 0.00 0.00 0.00 0.00 0.00 0.00 0.00 0.00 0.00 0.00 0.00 0.00 0.00 0.00 0.00 0.00 0.00 0.00 0.00 0.00 0.00 0.00 0.00 0.00 0.00 0.00 0.00 0.00 0.00 0.01 0.01 0.02 0.04 0.07 0.09 0.07 0.06 0.06 0.06 0.07 0.11
0.00 0.00 0.00 0.00 0.00 0.00 0.00 0.00 0.00 0.00 0.00 0.00 0.00 0.00 0.00 0.00 0.00 0.00 0.00 0.00 0.00 0.00 0.00 0.00 0.00 0.00 0.00 0.00 0.00 0.00 0.00 0.02 0.01 0.01 0.03 0.07 0.09 0.08 0.07 0.08 0.07 0.08 0.11
0.00 0.00 0.00 0.00 0.00 0.00 0.00 0.00 0.00 0.00 0.00 0.00 0.00 0.00 0.00 0.00 0.01 0.00 0.00 0.00 0.00 0.00 0.00 0.00 0.00 0.00 0.00 0.00 0.00 0.00 0.00 0.01 0.02 0.01 0.01 0.03 0.07 0.08 0.08 0.07 0.06 0.07 0.08
0.00 0.00 0.00 0.00 0.00 0.00 0.00 0.00 0.00 0.00 0.00 0.00 0.00 0.00 0.00 0.00 0.01 0.01 0.01 0.00 0.00 0.00 0.00 0.00 0.00 0.00 0.00 0.00 0.01 0.01 0.01 0.01 0.02 0.02 0.02 0.02 0.03 0.06 0.08 0.06 0.04 0.04 0.05
0.00 0.00 0.00 0.00 0.00 0.00 0.00 0.00 0.00 0.00 0.00 0.00 0.00 0.00 0.00 0.00 0.00 0.00 0.00 0.00 0.00 0.00 0.00 0.00 0.00 0.00 0.00 0.00 0.00 0.00 0.00 0.02 0.03 0.02 0.02 0.01 0.01 0.02 0.04 0.05 0.05 0.05 0.05
0.00 0.00 0.00 0.00 0.00 0.00 0.00 0.00 0.00 0.00 0.00 0.00 0.00 0.00 0.00 0.00 0.00 0.00 0.00 0.00 0.00 0.00 0.00 0.00 0.00 0.00 0.00 0.00 0.00 0.00 0.01 0.02 0.03 0.02 0.01 0.01 0.01 0.00 0.00 0.01 0.02 0.04 0.05
0.00 0.00 0.00 0.00 0.00 0.00 0.00 0.00 0.00 0.00 0.00 0.00 0.00 0.00 0.00 0.00 0.00 0.00 0.00 0.00 0.00 0.00 0.00 0.00 0.00 0.00 0.00 0.00 0.00 0.00 0.02 0.02 0.02 0.02 0.02 0.01 0.00 0.00 0.00 0.00 0.01 0.01 0.02
0.00 0.00 0.00 0.00 0.00 0.00 0.00 0.00 0.00 0.00 0.00 0.00 0.00 0.00 0.00 0.00 0.00 0.00 0.00 0.01 0.02 0.02 0.00 0.00 0.00 0.00 0.00 0.00 0.00 0.01 0.03 0.03 0.01 0.01 0.01 0.00 0.00 0.00 0.00 0.00 0.00 0.00 0.01
0.00 0.00 0.00 0.00 0.00 0.00 0.00 0.00 0.00 0.00 0.00 0.00 0.00 0.00 0.01 0.00 0.00 0.00 0.00 0.01 0.01 0.02 0.02 0.00 0.00 0.00 0.01 0.01 0.01 0.02 0.03 0.02 0.01 0.01 0.00 0.00 0.01 0.01 0.01 0.01 0.01 0.01 0.01
0.00 0.00 0.00 0.00 0.00 0.00 0.00 0.00 0.00 0.00 0.00 0.00 0.00 0.01 0.01 0.01 0.01 0.01 0.00 0.01 0.01 0.03 0.04 0.02 0.01 0.01 0.03 0.04 0.04 0.06 0.07 0.06 0.05 0.02 0.01 0.00 0.00 0.01 0.01 0.02 0.02 0.02 0.01
0.00 0.00 0.00 0.00 0.00 0.00 0.00 0.00 0.00 0.00 0.00 0.00 0.01 0.01 0.01 0.01 0.01 0.01 0.01 0.01 0.02 0.04 0.06 0.05 0.04 0.04 0.05 0.06 0.07 0.06 0.03 0.02 0.03 0.01 0.01 0.01 0.01 0.01 0.02 0.03 0.03 0.02 0.01
0.00 0.00 0.00 0.00 0.00 0.00 0.00 0.00 0.00 0.00 0.01 0.01 0.01 0.02 0.02 0.02 0.01 0.01 0.01 0.01 0.03 0.04 0.07 0.08 0.07 0.06 0.05 0.04 0.03 0.02 0.02 0.03 0.01 0.01 0.01 0.00 0.00 0.00 0.01 0.01 0.01 0.01 0.01
0.00 0.00 0.00 0.00 0.00 0.00 0.00 0.00 0.00 0.01 0.01 0.01 0.01 0.02 0.01 0.01 0.01 0.01 0.01 0.02 0.05 0.07 0.08 0.07 0.05 0.03 0.02 0.01 0.02 0.02 0.02 0.02 0.02 0.01 0.01 0.01 0.00 0.00 0.00 0.00 0.00 0.00 0.00
0.00 0.00 0.00 0.00 0.00 0.00 0.00 0.00 0.00 0.00 0.00 0.01 0.01 0.01 0.01 0.01 0.01 0.01 0.02 0.04 0.06 0.08 0.07 0.06 0.04 0.02 0.01 0.01 0.02 0.03 0.04 0.03 0.03 0.02 0.01 0.00 0.00 0.00 0.00 0.00 0.00 0.00 0.00
0.00 0.00 0.00 0.00 0.00 0.00 0.00 0.00 0.00 0.00 0.00 0.00 0.01 0.00 0.00 0.00 0.00 0.01 0.01 0.03 0.04 0.05 0.06 0.04 0.02 0.01 0.01 0.02 0.05 0.07 0.06 0.06 0.04 0.02 0.01 0.01 0.00 0.00 0.00 0.00 0.01 0.01 0.02
0.00 0.00 0.00 0.00 0.00 0.00 0.00 0.00 0.00 0.00 0.01 0.01 0.01 0.01 0.01 0.00 0.01 0.01 0.02 0.02 0.02 0.02 0.03 0.04 0.03 0.02 0.03 0.05 0.11 0.11 0.09 0.08 0.05 0.03 0.02 0.01 0.00 0.00 0.00 0.01 0.02 0.04 0.03
0.00 0.00 0.00 0.00 0.00 0.00 0.00 0.00 0.00 0.00 0.01 0.01 0.01 0.01 0.01 0.01 0.01 0.02 0.02 0.01 0.01 0.01 0.01 0.02 0.05 0.04 0.04 0.06 0.11 0.13 0.10 0.07 0.04 0.02 0.03 0.02 0.01 0.01 0.01 0.03 0.06 0.06 0.05
0.00 0.00 0.00 0.00 0.00 0.00 0.00 0.00 0.00 0.01 0.01 0.00 0.01 0.01 0.02 0.01 0.02 0.03 0.02 0.01 0.01 0.01 0.02 0.07 0.10 0.11 0.11 0.11 0.12 0.11 0.08 0.05 0.04 0.04 0.05 0.05 0.04 0.05 0.05 0.07 0.09 0.09 0.11
0.00 0.00 0.00 0.00 0.01 0.01 0.00 0.00 0.01 0.01 0.00 0.01 0.01 0.02 0.03 0.03 0.03 0.03 0.01 0.01 0.01 0.01 0.05 0.08 0.15 0.22 0.20 0.13 0.10 0.09 0.06 0.05 0.06 0.07 0.08 0.09 0.09 0.09 0.09 0.11 0.11 0.10 0.14
MSLP
1016.29 1016.36 1016.41 1016.46 1016.53 1016.62 1016.74 1016.86 1016.96 1017.02 1017.00 1016.92 1016.78 1016.62 1016.47 1016.38 1016.38 1016.47 1016.65 1016.89 1017.14 1017.36 1017.52 1017.59 1017.58 1017.51 1017.42 1017.33 1017.28 1017.27 1017.32 1017.40 1017.50 1017.59 1017.66 1017.71 1017.75 1017.80 1017.87 1017.99 1018.16 1018.39 1018.66
1016.53 1016.58 1016.61 1016.63 1016.68 1016.76 1016.87 1016.98 1017.08 1017.14 1017.13 1017.06 1016.92 1016.75 1016.58 1016.44 1016.38 1016.40 1016.51 1016.67 1016.87 1017.05 1017.20 1017.28 1017.30 1017.27 1017.20 1017.13 1017.08 1017.06 1017.07 1017.11 1017.16 1017.20 1017.23 1017.24 1017.24 1017.26 1017.30 1017.39 1017.53 1017.74 1017.99
1016.97 1017.00 1017.00 1017.02 1017.05 1017.11 1017.20 1017.30 1017.39 1017.43 1017.41 1017.32 1017.16 1016.96 1016.75 1016.56 1016.42 1016.36 1016.37 1016.46 1016.59 1016.73 1016.86 1016.95 1017.00 1016.99 1016.96 1016.90 1016.84 1016.79 1016.76 1016.73 1016.72 1016.69 1016.66 1016.63 1016.59 1016.57 1016.58 1016.65 1016.77 1016.96 1017.20
1017.54 1017.55 1017.54 1017.54 1017.56 1017.61 1017.67 1017.74 1017.79 1017.81 1017.76 1017.64 1017.45 1017.21 1016.95 1016.69 1016.48 1016.33 1016.25 1016.25 1016.31 1016.40 1016.51 1016.60 1016.66 1016.68 1016.66 1016.61 1016.54 1016.45 1016.37 1016.28 1016.19 1016.10 1016.01 1015.92 1015.84 1015.79 1015.79 1015.83 1015.94 1016.12 1016.35
1018.12 1018.13 1018.13 1018.12 1018.13 1018.16 1018.19 1018.23 1018.23 1018.20 1018.11 1017.95 1017.72 1017.44 1017.14 1016.82 1016.54 1016.31 1016.15 1016.07 1016.05 1016.09 1016.16 1016.23 1016.29 1016.31 1016.30 1016.25 1016.16 1016.05 1015.92 1015.78 1015.63 1015.48 1015.33 1015.20 1015.10 1015.02 1014.99 1015.03 1015.13 1015.29 1015.53
1018.65 1018.67 1018.67 1018.68 1018.69 1018.70 1018.70 1018.69 1018.65 1018.56 1018.42 1018.22 1017.96 1017.65 1017.31 1016.96 1016.63 1016.34 1016.10 1015.94 1015.85 1015.82 1015.83 1015.86 1015.90 1015.91 1015.90 1015.84 1015.75 1015.62 1015.46 1015.29 1015.10 1014.91 1014.74 1014.58 1014.45 1014.36 1014.31 1014.33 1014.41 1014.56 1014.78
1019.06 1019.10 1019.13 1019.16 1019.17 1019.18 1019.15 1019.10 1019.01 1018.87 1018.68 1018.45 1018.17 1017.84 1017.49 1017.13 1016.77 1016.43 1016.14 1015.91 1015.73 1015.62 1015.55 1015.53 1015.52 1015.51 1015.49 1015.43 1015.34 1015.22 1015.06 1014.88 1014.68 1014.49 1014.30 1014.12 1013.98 1013.87 1013.80 1013.80 1013.85 1013.98 1014.17
1019.34 1019.42 1019.48 1019.54 1019.58 1019.58 1019.54 1019.46 1019.33 1019.15 1018.93 1018.67 1018.39 1018.07 1017.73 1017.37 1017.00 1016.64 1016.30 1015.99 1015.74 1015.53 1015.38 1015.27 1015.20 1015.15 1015.11 1015.05 1014.98 1014.87 1014.74 1014.59 1014.41 1014.23 1014.04 1013.87 1013.71 1013.58 1013.49 1013.45 1013.46 1013.54 1013.69
1019.53 1019.64 1019.75 1019.84 1019.91 1019.92 1019.88 1019.78 1019.62 1019.42 1019.18 1018.93 1018.65 1018.36 1018.04 1017.71 1017.35 1016.97 1016.59 1016.22 1015.87 1015.56 1015.30 1015.10 1014.96 1014.86 1014.79 1014.73 1014.68 1014.61 1014.52 1014.41 1014.27 1014.12 1013.95 1013.78 1013.61 1013.46 1013.34 1013.25 1013.21 1013.23 1013.32
1019.67 1019.81 1019.96 1020.09 1020.18 1020.21 1020.17 1020.06 1019.90 1019.69 1019.45 1019.21 1018.95 1018.69 1018.42 1018.11 1017.77 1017.39 1016.97 1016.53 1016.09 1015.68 1015.31 1015.01 1014.78 1014.62 1014.52 1014.46 1014.42 1014.39 1014.35 1014.29 1014.20 1014.08 1013.93 1013.77 1013.59 1013.42 1013.25 1013.12 1013.02 1012.98 1013.01
1019.78 1019.95 1020.12 1020.27 1020.39 1020.43 1020.40 1020.30 1020.13 1019.93 1019.70 1019.47 1019.25 1019.03 1018.79 1018.51 1018.19 1017.80 1017.35 1016.86 1016.34 1015.83 1015.36 1014.96 1014.64 1014.41 1014.27 1014.19 1014.17 1014.16 1014.16 1014.14 1014.09 1014.00 1013.87 1013.71 1013.53 1013.34 1013.15 1012.98 1012.84 1012.75 1012.71
1019.88 1020.05 1020.23 1020.39 1020.51 1020.56 1020.54 1020.44 1020.27 1020.07 1019.86 1019.65 1019.45 1019.26 1019.05 1018.80 1018.50 1018.11 1017.64 1017.10 1016.52 1015.93 1015.38 1014.88 1014.48 1014.19 1013.99 1013.89 1013.86 1013.86 1013.88 1013.88 1013.86 1013.79 1013.68 1013.53 1013.35 1013.16 1012.96 1012.77 1012.61 1012.49 1012.42
1019.96 1020.10 1020.26 1020.40 1020.51 1020.56 1020.53 1020.42 1020.26 1020.06 1019.85 1019.65 1019.47 1019.29 1019.11 1018.88 1018.59 1018.21 1017.74 1017.18 1016.56 1015.92 1015.30 1014.74 1014.27 1013.91 1013.66 1013.52 1013.46 1013.45 1013.46 1013.46 1013.45 1013.39 1013.30 1013.17 1013.01 1012.83 1012.65 1012.48 1012.33 1012.22 1012.14
1019.97 1020.07 1020.18 1020.29 1020.36 1020.39 1020.34 1020.22 1020.05 1019.84 1019.63 1019.43 1019.25 1019.08 1018.91 1018.70 1018.42 1018.06 1017.59 1017.04 1016.41 1015.75 1015.10 1014.49 1013.97 1013.56 1013.26 1013.06 1012.95 1012.91 1012.89 1012.88 1012.86 1012.82 1012.74 1012.64 1012.52 1012.39 1012.26 1012.14 1012.04 1011.95 1011.90
1019.91 1019.93 1019.98 1020.03 1020.06 1020.05 1019.97 1019.83 1019.64 1019.42 1019.19 1018.98 1018.79 1018.62 1018.45 1018.25 1017.99 1017.65 1017.21 1016.68 1016.08 1015.43 1014.78 1014.17 1013.62 1013.16 1012.81 1012.55 1012.38 1012.28 1012.23 1012.19 1012.16 1012.12 1012.07 1012.01 1011.95 1011.89 1011.84 1011.79 1011.76 1011.74 1011.72
1019.75 1019.71 1019.69 1019.68 1019.65 1019.60 1019.48 1019.32 1019.11 1018.87 1018.62 1018.39 1018.17 1017.99 1017.80 1017.60 1017.36 1017.05 1016.66 1016.18 1015.62 1015.02 1014.40 1013.79 1013.23 1012.74 1012.35 1012.03 1011.80 1011.65 1011.54 1011.47 1011.43 1011.40 1011.39 1011.39 1011.39 1011.42 1011.45 1011.49 1011.53 1011.57 1011.60
1019.54 1019.43 1019.35 1019.28 1019.21 1019.12 1018.98 1018.79 1018.55 1018.29 1018.02 1017.75 1017.52 1017.30 1017.10 1016.90 1016.67 1016.39 1016.04 1015.62 1015.12 1014.58 1014.00 1013.42 1012.87 1012.36 1011.92 1011.56 1011.27 1011.06 1010.91 1010.82 1010.78 1010.77 1010.79 1010.85 1010.92 1011.02 1011.12 1011.23 1011.34 1011.42 1011.48
1019.32 1019.17 1019.05 1018.95 1018.84 1018.72 1018.56 1018.35 1018.10 1017.82 1017.52 1017.23 1016.96 1016.71 1016.48 1016.26 1016.03 1015.77 1015.46 1015.09 1014.66 1014.17 1013.64 1013.09 1012.55 1012.03 1011.56 1011.16 1010.83 1010.57 1010.39 1010.29 1010.25 1010.26 1010.33 1010.43 1010.56 1010.70 1010.85 1010.99 1011.11 1011.21 1011.27
1019.14 1018.98 1018.85 1018.73 1018.62 1018.49 1018.32 1018.11 1017.85 1017.55 1017.23 1016.91 1016.59 1016.30 1016.03 1015.79 1015.54 1015.28 1014.99 1014.65 1014.26 1013.81 1013.32 1012.80 1012.27 1011.74 1011.26 1010.82 1010.46 1010.18 1009.99 1009.88 1009.85 1009.90 1009.99 1010.12 1010.28 1010.43 1010.58 1010.69 1010.78 1010.84 1010.86
1019.06 1018.91 1018.79 1018.69 1018.59 1018.46 1018.30 1018.09 1017.83 1017.51 1017.17 1016.81 1016.45 1016.11 1015.79 1015.49 1015.21 1014.93 1014.63 1014.30 1013.92 1013.50 1013.02 1012.51 1011.98 1011.46 1010.96 1010.51 1010.14 1009.85 1009.66 1009.56 1009.55 1009.62 1009.73 1009.87 1010.01 1010.13 1010.22 1010.26 1010.26 1010.22 1010.15
1019.07 1018.97 1018.88 1018.80 1018.72 1018.61 1018.46 1018.26 1017.99 1017.67 1017.30 1016.90 1016.49 1016.09 1015.71 1015.35 1015.00 1014.67 1014.34 1013.98 1013.59 1013.16 1012.69 1012.18 1011.64 1011.12 1010.61 1010.17 1009.79 1009.52 1009.34 1009.27 1009.29 1009.37 1009.49 1009.61 1009.71 1009.75 1009.73 1009.65 1009.50 1009.32 1009.14
1019.18 1019.13 1019.08 1019.03 1018.97 1018.87 1018.73 1018.53 1018.25 1017.91 1017.51 1017.07 1016.61 1016.14 1015.69 1015.25 1014.83 1014.43 1014.03 1013.63 1013.20 1012.74 1012.25 1011.74 1011.20 1010.68 1010.18 1009.75 1009.40 1009.15 1009.00 1008.96 1009.00 1009.10 1009.20 1009.29 1009.31 1009.26 1009.11 1008.86 1008.55 1008.21 1007.88
1019.36 1019.34 1019.33 1019.30 1019.24 1019.15 1019.00 1018.79 1018.50 1018.13 1017.70 1017.21 1016.69 1016.15 1015.62 1015.09 1014.59 1014.11 1013.64 1013.18 1012.71 1012.22 1011.71 1011.18 1010.65 1010.14 1009.66 1009.26 1008.94 1008.73 1008.63 1008.62 1008.69 1008.79 1008.88 1008.92 1008.86 1008.69 1008.40 1008.00 1007.51 1007.01 1006.53
1019.57 1019.58 1019.58 1019.55 1019.48 1019.37 1019.20 1018.95 1018.63 1018.22 1017.75 1017.21 1016.63 1016.02 1015.41 1014.81 1014.23 1013.67 1013.14 1012.62 1012.10 1011.59 1011.07 1010.54 1010.03 1009.54 1009.11 1008.74 1008.47 1008.31 1008.25 1008.28 1008.37 1008.47 1008.55 1008.54 1008.42 1008.15 1007.73 1007.19 1006.57 1005.92 1005.32
1019.80 1019.82 1019.80 1019.75 1019.64 1019.49 1019.27 1018.97 1018.60 1018.14 1017.61 1017.02 1016.38 1015.72 1015.04 1014.38 1013.73 1013.12 1012.54 1011.98 1011.44 1010.92 1010.41 1009.91 1009.44 1008.99 1008.61 1008.30 1008.09 1007.97 1007.96 1008.02 1008.13 1008.24 1008.30 1008.26 1008.08 1007.75 1007.25 1006.62 1005.90 1005.16 1004.48
1020.05 1020.05 1020.00 1019.90 1019.74 1019.52 1019.23 1018.87 1018.43 1017.91 1017.33 1016.68 1015.99 1015.28 1014.56 1013.85 1013.17 1012.53 1011.92 1011.36 1010.83 1010.33 1009.85 1009.40 1008.98 1008.60 1008.28 1008.03 1007.87 1007.80 1007.83 1007.91 1008.04 1008.15 1008.21 1008.16 1007.96 1007.60 1007.07 1006.41 1005.66 1004.89 1004.17
Thickness
5710 5709 5706 5701 5702 5700 5698 5696 5695 5692 5689 5689 5689 5687 5686 5685 5682 5680 5677 5670 5665 5660 5658 5656 5655 5654 5653 5653 5653 5653 5653 5653 5654 5655 5656 5657 5657 5658 5658 5659 5659 5658 5656
5703 5701 5698 5695 5694 5692 5690 5687 5687 5683 5683 5682 5679 5677 5674 5674 5672 5668 5665 5661 5655 5651 5648 5646 5645 5644 5644 5644 5644 5645 5644 5645 5646 5646 5647 5648 5649 5650 5651 5652 5653 5654 5653
5695 5693 5692 5689 5686 5683 5680 5678 5677 5675 5673 5671 5669 5667 5665 5662 5660 5655 5651 5648 5645 5640 5637 5634 5632 5632 5633 5633 5633 5634 5635 5636 5637 5638 5639 5640 5641 5643 5645 5645 5645 5648 5649
5686 5684 5684 5681 5675 5675 5673 5670 5667 5665 5662 5659 5657 5655 5653 5650 5646 5642 5638 5635 5632 5631 5628 5624 5621 5619 5618 5619 5621 5622 5623 5625 5627 5629 5631 5632 5634 5636 5638 5639 5639 5640 5643
5677 5675 5671 5667 5666 5665 5662 5659 5656 5651 5649 5645 5644 5643 5641 5638 5635 5631 5628 5624 5620 5618 5615 5611 5609 5607 5605 5606 5607 5608 5610 5612 5614 5617 5621 5624 5626 5628 5629 5630 5631 5633 5635
5668 5665 5661 5656 5656 5654 5649 5645 5640 5637 5633 5630 5629 5628 5626 5624 5621 5617 5613 5610 5607 5604 5602 5599 5596 5596 5594 5595 5594 5594 5595 5597 5600 5604 5609 5613 5616 5619 5619 5619 5621 5623 5626
5658 5655 5653 5648 5645 5642 5636 5633 5628 5627 5623 5620 5615 5616 5616 5614 5611 5606 5600 5596 5593 5590 5588 5585 5583 5583 5583 5582 5582 5583 5583 5585 5587 5591 5596 5600 5605 5608 5609 5610 5610 5612 5615
5648 5645 5639 5638 5633 5628 5625 5620 5615 5612 5611 5606 5600 5598 5600 5602 5599 5595 5586 5580 5576 5574 5573 5572 5570 5569 5569 5572 5574 5574 5574 5574 5576 5579 5583 5586 5590 5594 5597 5597 5598 5599 5602
5637 5633 5629 5625 5620 5619 5615 5606 5599 5597 5594 5589 5585 5578 5578 5580 5572 5569 5564 5560 5557 5557 5558 5559 5558 5558 5559 5561 5564 5566 5565 5564 5564 5567 5570 5573 5575 5578 5582 5584 5585 5585 5588
5624 5620 5616 5611 5605 5603 5597 5593 5586 5579 5575 5572 5566 5558 5550 5546 5542 5546 5543 5542 5543 5543 5545 5546 5547 5547 5548 5549 5552 5551 5550 5550 5551 5553 5556 5559 5561 5563 5566 5569 5571 5571 5574
5611 5607 5602 5597 5591 5587 5580 5574 5568 5563 5560 5554 5547 5541 5534 5528 5524 5524 5528 5529 5532 5535 5536 5537 5537 5537 5537 5538 5540 5541 5539 5537 5538 5539 5542 5544 5546 5547 5550 5554 5557 5559 5561
5601 5595 5589 5583 5578 5572 5565 5559 5552 5550 5542 5534 5528 5525 5521 5516 5514 5514 5516 5518 5523 5526 5526 5526 5526 5526 5527 5529 5530 5529 5526 5524 5524 5526 5528 5530 5531 5532 5535 5538 5542 5546 5549
5590 5582 5577 5569 5563 5556 5550 5545 5539 5533 5528 5520 5514 5511 5508 5504 5502 5502 5504 5506 5509 5513 5515 5515 5515 5515 5514 5516 5518 5517 5515 5513 5512 5513 5515 5516 5517 5518 5520 5524 5528 5532 5536
5577 5568 5562 5556 5549 5543 5538 5532 5527 5522 5514 5507 5503 5499 5494 5492 5491 5491 5491 5491 5494 5497 5498 5499 5499 5497 5497 5499 5500 5500 5501 5500 5500 5500 5501 5502 5503 5505 5507 5510 5514 5519 5523
5562 5555 5549 5543 5537 5530 5525 5519 5515 5508 5503 5497 5494 5491 5486 5482 5480 5479 5475 5471 5471 5473 5480 5482 5480 5479 5478 5480 5482 5483 5484 5485 5485 5486 5487 5487 5489 5493 5495 5499 5503 5508 5512
5547 5541 5537 5532 5526 5520 5514 5507 5503 5500 5495 5490 5485 5480 5475 5473 5471 5468 5464 5459 5455 5454 5458 5461 5459 5458 5459 5462 5465 5467 5470 5471 5472 5473 5474 5475 5477 5480 5484 5489 5495 5500 5504
5536 5531 5526 5521 5516 5510 5504 5498 5492 5488 5485 5481 5477 5473 5468 5463 5460 5456 5451 5446 5442 5439 5440 5444 5444 5444 5446 5447 5450 5453 5457 5460 5462 5463 5464 5464 5466 5470 5475 5481 5488 5494 5498
5526 5522 5517 5512 5507 5503 5497 5491 5486 5481 5476 5471 5465 5459 5455 5451 5446 5441 5436 5433 5430 5428 5428 5432 5434 5436 5437 5438 5441 5444 5449 5454 5455 5454 5454 5455 5458 5462 5467 5473 5479 5484 5489
5515 5512 5507 5503 5499 5495 5489 5483 5476 5470 5465 5458 5451 5444 5440 5436 5432 5427 5422 5420 5419 5420 5421 5423 5425 5428 5431 5434 5438 5442 5444 5445 5445 5446 5446 5447 5450 5455 5460 5466 5471 5477 5481
5507 5503 5498 5493 5488 5483 5477 5469 5461 5455 5449 5443 5437 5431 5426 5422 5418 5414 5411 5408 5407 5409 5411 5413 5419 5424 5429 5432 5434 5436 5438 5438 5438 5439 5440 5443 5446 5450 5455 5461 5466 5471 5475
5497 5491 5486 5481 5475 5468 5457 5444 5438 5437 5434 5429 5423 5418 5413 5410 5406 5403 5401 5400 5401 5403 5405 5408 5415 5422 5427 5428 5430 5430 5429 5431 5433 5436 5439 5442 5446 5451 5457 5460 5463 5468 5471
5483 5477 5471 5466 5459 5450 5433 5423 5418 5421 5419 5416 5412 5407 5403 5400 5399 5397 5395 5394 5394 5398 5405 5407 5413 5418 5422 5425 5426 5424 5424 5427 5435 5439 5440 5444 5446 5450 5456 5461 5464 5464 5468
5469 5463 5457 5450 5442 5432 5419 5412 5408 5406 5407 5405 5402 5399 5397 5395 5391 5392 5393 5394 5396 5399 5400 5403 5407 5412 5417 5422 5424 5425 5427 5432 5439 5441 5439 5443 5446 5449 5455 5458 5457 5460 5466
5456 5450 5442 5434 5427 5421 5410 5403 5399 5399 5399 5398 5396 5392 5389 5388 5386 5385 5388 5392 5396 5400 5403 5406 5410 5415 5419 5423 5426 5429 5433 5437 5439 5439 5439 5441 5444 5446 5449 5451 5453 5457 5466
5441 5435 5429 5423 5417 5412 5403 5396 5391 5392 5393 5393 5391 5389 5386 5385 5384 5384 5386 5392 5398 5404 5409 5412 5415 5419 5425 5431 5435 5436 5438 5439 5442 5440 5437 5437 5440 5440 5442 5446 5449 5454 5464
5428 5423 5418 5413 5409 5404 5397 5390 5384 5387 5388 5388 5388 5388 5387 5385 5385 5386 5389 5395 5402 5410 5415 5418 5421 5426 5432 5440 5443 5443 5443 5443 5443 5441 5437 5435 5435 5433 5437 5441 5443 5449 5459